Regional Weather Roundup
Issued by NWS Charleston, WV

Home | Current Version | Previous Version | Graphics & Text | Print | Product List | Glossary On
Versions: 1 2 3 4 5 6 7 8 9 10 11 12 13 14 15 16 17 18 19 20 21 22 23 24 25 26 27 28 29 30 31 32 33 34 35 36 37 38 39 40 41 42 43 44 45 46 47 48 49 50
000
ASUS41 KRLX 091410
RWRRLX
CRWRWRRLX ALL
West Virginia Regional Weather Roundup
National Weather Service Charleston WV
Issued by National Weather Service Pittsburgh PA
900 AM EST FRI DEC 09 2016

Note: "fair" indicates few or no clouds below 12,000 feet with no
significant weather and/or obstructions to visibility.

WVZ003-091500-
Northern Panhandle of West Virginia

CITY           SKY/WX    TMP DP  RH WIND       PRES   REMARKS
WHEELING       CLOUDY    21  15  78 SW16G22   30.36R WCI   7
$$

WVZ009-091500-
Northwest West Virginia

CITY           SKY/WX    TMP DP  RH WIND       PRES   REMARKS
PARKERSBURG    CLOUDY    23  14  68 W10       30.49R WCI  12
$$

WVZ006-091500-
Western West Virginia

CITY           SKY/WX    TMP DP  RH WIND       PRES   REMARKS
HUNTINGTON     LGT SNOW  24  17  74 W5        30.51R WCI  18
$$

WVZ015-091500-
West Central West Virginia

CITY           SKY/WX    TMP DP  RH WIND       PRES   REMARKS
CHARLESTON     LGT SNOW  24  16  71 W8        30.48R WCI  15
$$

WVZ031-091500-
North Central West Virginia

CITY           SKY/WX    TMP DP  RH WIND       PRES   REMARKS
CLARKSBURG     LGT SNOW  22  16  78 W13       30.40R WCI  10
MORGANTOWN     CLOUDY    23  16  74 W7        30.37R WCI  15
$$

WVZ035-042-091500-
South Central West Virginia

CITY           SKY/WX    TMP DP  RH WIND       PRES   REMARKS
BECKLEY        CLOUDY    17  10  74 NW8       30.35R WCI   7
BLUEFIELD      LGT SNOW  16  10  77 NW8       30.33R WCI   5
$$

WVZ045-091500-
Greenbrier Valley of West Virginia

CITY           SKY/WX    TMP DP  RH WIND       PRES   REMARKS
LEWISBURG      CLOUDY    19  10  70 W5        30.33R WCI  12
$$

WVZ047-091500-
Northern Mountains of West Virginia

CITY           SKY/WX    TMP DP  RH WIND       PRES   REMARKS
ELKINS         LGT SNOW  20  12  71 VRB5      30.35R WCI  13
$$

WVZ052-091500-
Eastern Panhandle of West Virginia

CITY           SKY/WX    TMP DP  RH WIND       PRES   REMARKS
MARTINSBURG    CLOUDY    30  15  53 W16       30.31R WCI  19
PETERSBURG     MOSUNNY   30  15  53 CALM      30.34R
$$




USA.gov is the U.S. government's official web portal to all federal, state and local government web resources and services.